Frying Pan Shoals, NC (41013)

Conditions for Die Solis

Daily
Weekly
Monthly
Marine Data Graph

Current Weather/Wave Observations

Air Temperature: 83° F
Humidity: 90
Wind direction (W Dir): Auster (185 - 194 Degrees)
Wind Speed (W Spd): 15.6 kts (17.9 mph)
Wind Gust (W Spd): 17.5 kts (20.1 mph)
Atmospheric Pressure (AP): 30.02 in

Updated: 09:40 PM EDT die 24o June, anno 2018

Marine & Boating Location Search

Enter a coastal zip code for marine weather.

Current Wave Detail Observations

Water Depth: 79 ft
Wave Height: 3.22 ft
Spectral Peak Period: 5.0 sec
Average Wave Period: 4.1 sec
Sampling Interval: 0.6 sec
Wave Record: 2400 sec

Updated: 10:00 PM EDT die 24o June, anno 2018

General Information

Location: 33.436 -77.743
Buoy Type: 2.3-meter foam discus buoy
Buoy Hull: 2.3D01
Payload: SCOOP payload
Owned by: NDBC
Windspeed: Measured by obtained from anemometer
Sea Surface: Measured by Intake
Note: Right whales are active off NC from November to April. Speed restrictions of 10 knots apply to vessels 65 feet or greater in specific areas and times along the mid-Atlantic coast. To learn more about right whales and rules protecting them, go to: http://www.nmfs.noaa.gov/pr/shipstrike/

Weather and Wave Data

Time Temp Humidity Wind Dominant Wave Wind Wave Wave Swell Pressure
  Air
(°F)
Water
(°F)
  Dir Speed
(kts)
Speed
(mph)
Period
(sec)
Height
(ft)
Range
(ft)
Period
(sec)
Height
(ft)
Range
(ft)
Period
(sec)
Height
(ft)
Range
(ft)
Atmo.
(in)
Tend.
(in)
20:00 82 83 87 Magis Auster quam Zephyrus 19.4 22.4 - - - - - - 29.91 +0.01
20:10 82 83 87 Magis Auster quam Zephyrus 19.4 22.4 - - - - - - 29.91 -
20:20 82 83 88 Magis Auster quam Zephyrus 19.4 22.4 - - - - - - 29.91 -
20:30 82 83 87 Magis Auster quam Zephyrus 21.4 24.6 - - - - - - 29.91 -
20:50 82
-
87 Magis Auster quam Zephyrus 19.4 22.4 5 4.27 exactly 4.3 5 4.92 4.10 - 5.74 - - - 29.91 -
21:10 82 83 88 Magis Auster quam Zephyrus 19.4 22.4 - - - - - - 29.91 -
21:20 82 83 88 Magis Auster quam Zephyrus 17.5 20.1 - - - - - - 29.90 -
21:30 82 83 87 Magis Auster quam Zephyrus 19.4 22.4 - - - - - - 29.91 -
21:40 83 83 84 Magis Auster quam Zephyrus 17.5 20.1 - - - - - - 29.91 -
21:50 83 83 84 Magis Auster quam Zephyrus 17.5 20.1 6 4.59 exactly 4.6 6 4.92 4.10 - 5.74 - - - 29.92 -
22:10 83 83 84 Magis Auster quam Zephyrus 19.4 22.4 - - - - - - 29.93 -
22:20 83 83 84 Magis Auster quam Zephyrus 19.4 22.4 - - - - - - 29.93 -
22:30 83 82 83 Inter Austrum et Zephyrum 19.4 22.4 - - - - - - 29.94 -
22:40 83 82 83 Inter Austrum et Zephyrum 17.5 20.1 - - - - - - 29.94 -
23:10 83 82 82 Inter Austrum et Zephyrum 17.5 20.1 - - - - - - 29.94 -
23:20 83 82 83 Inter Austrum et Zephyrum 17.5 20.1 - - - - - - 29.94 -
23:30 83 82 84 Inter Austrum et Zephyrum 17.5 20.1 - - - - - - 29.94 -
23:40 83 82 84 Magis Auster quam Zephyrus 15.6 17.9 - - - - - - 29.94 -
23:50 83 82 83 Magis Auster quam Zephyrus 15.6 17.9 5 4.59 exactly 4.6 5 4.92 4.10 - 5.74 - - - 29.94 -
00:10 83 82 84 Inter Austrum et Zephyrum 15.6 17.9 - - - - - - 29.94 -
00:30 83 82 84 Magis Auster quam Zephyrus 15.6 17.9 - - - - - - 29.94 -
00:40 83 82 84 Magis Auster quam Zephyrus 15.6 17.9 - - - - - - 29.94 -
00:50 83 82 84 Magis Auster quam Zephyrus 15.6 17.9 5 4.92 exactly 4.9 5 4.92 4.10 - 5.74 - - - 29.94 -
01:20 83 82 83 Inter Austrum et Zephyrum 15.6 17.9 - - - - - - 29.94 -
01:30 83 82 82 Inter Austrum et Zephyrum 17.5 20.1 - - - - - - 29.94 -
01:40 83 82 80 Inter Austrum et Zephyrum 15.6 17.9 - - - - - - 29.94 -
01:50 83 82 80 Inter Austrum et Zephyrum 15.6 17.9 6 3.94 exactly 3.9 6 3.28 2.46 - 4.10 - - - 29.95 -
02:10 83 82 80 Inter Austrum et Zephyrum 15.6 17.9 - - - - - - 29.94 -
02:20 83 82 82 Inter Austrum et Zephyrum 15.6 17.9 - - - - - - 29.95 -
02:30 83 82 82 Inter Austrum et Zephyrum 13.6 15.7 - - - - - - 29.95 -
02:50 82 82 86 Inter Austrum et Zephyrum 13.6 15.7 6 4.27 exactly 4.3 6 4.92 4.10 - 5.74 13 1.64 0.82 - 2.46 29.94 -
03:10 82
-
86 Inter Austrum et Zephyrum 13.6 15.7 - - - - - - 29.94 -
03:20 82 82 86 Inter Austrum et Zephyrum 13.6 15.7 - - - - - - 29.94 -
03:30 82 82 85 Inter Austrum et Zephyrum 13.6 15.7 - - - - - - 29.95 -
03:40 82 82 86 Inter Austrum et Zephyrum 15.6 17.9 - - - - - - 29.95 -
04:10 82 82 88 Inter Austrum et Zephyrum 15.6 17.9 - - - - - - 29.94 -
04:20 82 82 88 Inter Austrum et Zephyrum 15.6 17.9 - - - - - - 29.95 -
04:30 82 82 89 Inter Austrum et Zephyrum 15.6 17.9 - - - - - - 29.95 -
04:40 82 82 89 Inter Austrum et Zephyrum 15.6 17.9 - - - - - - 29.95 -
04:50 82 82 89 Inter Austrum et Zephyrum 15.6 17.9 6 3.94 exactly 3.9 6 3.28 2.46 - 4.10 - - - 29.95 -
05:00 82 82 89 Inter Austrum et Zephyrum 15.6 17.9 - - - - - - 29.95 +0.01
05:10 82 82 89 Inter Austrum et Zephyrum 13.6 15.7 - - - - - - 29.96 -
05:20 82 82 89 Inter Austrum et Zephyrum 15.6 17.9 - - - - - - 29.96 -
05:50 82 82 90 Inter Austrum et Zephyrum 13.6 15.7 6 3.94 exactly 3.9 6 3.28 2.46 - 4.10 - - - 29.96 -
06:00 82 82 90 Magis Zephyrus quam Auster 13.6 15.7 - - - - - - 29.97 +0.03
06:10 82 82 89 Magis Zephyrus quam Auster 15.6 17.9 - - - - - - 29.97 -
06:30 82 82 83 Magis Zephyrus quam Auster 17.5 20.1 - - - - - - 29.98 -
06:40 82 82 83 Magis Zephyrus quam Auster 17.5 20.1 - - - - - - 29.98 -
06:50 82 82 83 Magis Zephyrus quam Auster 15.6 17.9 6 3.61 exactly 3.6 6 3.28 2.46 - 4.10 8 1.64 0.82 - 2.46 29.98 -
07:00 82 82 83 Magis Zephyrus quam Auster 15.6 17.9 - - - - - - 29.99 +0.04
07:10 82 82 84 Magis Zephyrus quam Auster 15.6 17.9 - - - - - - 29.99 -
07:20 82 82 84 Magis Zephyrus quam Auster 13.6 15.7 - - - - - - 29.99 -
07:30 82 82 86 Magis Zephyrus quam Auster 13.6 15.7 - - - - - - 29.99 -
07:40 82 82 86 Magis Zephyrus quam Auster 13.6 15.7 - - - - - - 30.00 -
08:20 82 82 85 Magis Zephyrus quam Auster 11.7 13.4 - - - - - - 30.01 -
08:30 82 82 84 Zephyrus 11.7 13.4 - - - - - - 30.01 -
08:50 82 82 84 Zephyrus 11.7 13.4 6 3.94 exactly 3.9 5 3.28 2.46 - 4.10 6 1.64 0.82 - 2.46 30.01 -
09:10 82 82 86 Magis Zephyrus quam Auster 11.7 13.4 - - - - - - 30.02 -
09:20 82 82 86 Magis Zephyrus quam Auster 11.7 13.4 - - - - - - 30.02 -
09:30 82 82 85 Magis Zephyrus quam Auster 11.7 13.4 - - - - - - 30.02 -
09:40 82 82 85 Magis Zephyrus quam Auster 11.7 13.4 - - - - - - 30.02 -
09:50 82 82 87 Magis Zephyrus quam Auster 11.7 13.4 6 3.28 exactly 3.3 6 3.28 2.46 - 4.10 13 1.64 0.82 - 2.46 30.02 -
10:10 82 82 87 Magis Zephyrus quam Auster 11.7 13.4 - - - - - - 30.02 -
10:20 82 82 87 Magis Zephyrus quam Auster 11.7 13.4 - - - - - - 30.03 -
10:30 82 82 86 Magis Zephyrus quam Auster 13.6 15.7 - - - - - - 30.03 -
10:40 82 82 87 Inter Austrum et Zephyrum 13.6 15.7 - - - - - - 30.03 -
10:50 82 82 86 Inter Austrum et Zephyrum 13.6 15.7 5 3.28 exactly 3.3 5 3.28 2.46 - 4.10 14 1.64 0.82 - 2.46 30.04 -
11:00 82 82 86 Magis Zephyrus quam Auster 13.6 15.7 - - - - - - 30.03 +0.03
11:10 82 82 86 Inter Austrum et Zephyrum 13.6 15.7 - - - - - - 30.03 -
11:30 82 82 87 Inter Austrum et Zephyrum 11.7 13.4 - - - - - - 30.03 -
11:40 82 82 87 Inter Austrum et Zephyrum 11.7 13.4 - - - - - - 30.03 -
11:50 82 82 87 Inter Austrum et Zephyrum 11.7 13.4 6 3.28 exactly 3.3 6 3.28 2.46 - 4.10 12 1.64 0.82 - 2.46 30.03 -
12:10 82 82 88 Magis Auster quam Zephyrus 11.7 13.4 - - - - - - 30.03 -
12:20 82 82 88 Magis Auster quam Zephyrus 13.6 15.7 - - - - - - 30.02 -
12:40 82 82 89 Magis Auster quam Zephyrus 13.6 15.7 - - - - - - 30.02 -
13:10 83 83 85 Magis Auster quam Zephyrus 13.6 15.7 - - - - - - 30.01 -
13:20 83 83 86 Magis Auster quam Zephyrus 13.6 15.7 - - - - - - 30.01 -
13:30 83 83 86 Magis Auster quam Zephyrus 13.6 15.7 - - - - - - 30.01 -
13:40 83 83 86 Magis Auster quam Zephyrus 13.6 15.7 - - - - - - 30.01 -
13:50 82 83 89 Magis Auster quam Zephyrus 15.6 17.9 6 3.28 exactly 3.3 6 3.28 2.46 - 4.10 - - - 30.01 -
14:10 83 83 86 Magis Auster quam Zephyrus 15.6 17.9 - - - - - - 30.00 -
14:20 83 83 86 Magis Auster quam Zephyrus 15.6 17.9 - - - - - - 30.00 -
14:30 83 83 86 Magis Auster quam Zephyrus 15.6 17.9 - - - - - - 30.00 -
14:40 83 83 86 Magis Auster quam Zephyrus 15.6 17.9 - - - - - - 29.99 -
14:50 83 83 87 Magis Auster quam Zephyrus 13.6 15.7 6 2.95 exactly 3.0 6 3.28 2.46 - 4.10 - - - 29.99 -
15:00 83 83 87 Magis Auster quam Zephyrus 15.6 17.9 - - - - - - 29.99 -0.04
15:10 83 83 87 Magis Auster quam Zephyrus 15.6 17.9 - - - - - - 29.99 -
15:20 83 83 87 Magis Auster quam Zephyrus 15.6 17.9 - - - - - - 29.99 -
15:40 83 83 88 Auster 15.6 17.9 - - - - - - 29.99 -
15:50 83 83 87 Magis Auster quam Zephyrus 15.6 17.9 5 3.28 exactly 3.3 5 3.28 2.46 - 4.10 - - - 29.99 -
16:00 83 83 87 Auster 15.6 17.9 - - - - - - 29.99 -0.03
16:10 83 83 88 Auster 15.6 17.9 - - - - - - 29.99 -
16:20 83 83 88 Auster 15.6 17.9 - - - - - - 29.98 -
16:50 83 83 89 Auster 13.6 15.7 5 3.28 exactly 3.3 5 3.28 2.46 - 4.10 - - - 29.99 -
17:10 83 83 88 Auster 15.6 17.9 - - - - - - 29.98 -
17:20 83 83 88 Auster 15.6 17.9 - - - - - - 29.98 -
17:40 83 83 89 Auster 15.6 17.9 - - - - - - 29.97 -
17:50 83 83 89 Auster 15.6 17.9 5 3.28 exactly 3.3 5 3.28 2.46 - 4.10 - - - 29.97 -
18:10 83 83 88 Magis Auster quam Zephyrus 17.5 20.1 - - - - - - 29.97 -
18:20 83 83 88 Magis Auster quam Zephyrus 15.6 17.9 - - - - - - 29.98 -
18:30 83 83 88 Auster 15.6 17.9 - - - - - - 29.98 -
18:40 83 83 88 Auster 15.6 17.9 - - - - - - 29.98 -
19:10 83 83 88 Auster 17.5 20.1 - - - - - - 29.96 -
19:20 83 83 89 Auster 15.6 17.9 - - - - - - 29.97 -
19:30 83 83 88 Auster 17.5 20.1 - - - - - - 29.97 -
19:40 83 83 88 Auster 17.5 20.1 - - - - - - 29.97 -
19:50 83 82 88 Auster 17.5 20.1 5 3.61 exactly 3.6 5 3.28 2.46 - 4.10 - - - 29.99 -
20:10 83 83 88 Magis Auster quam Zephyrus 15.6 17.9 - - - - - -
-
-
20:20 83 82 88 Magis Auster quam Zephyrus 13.6 15.7 - - - - - - 30.00 -
20:30 83 83 88 Auster 15.6 17.9 - - - - - - 30.00 -
20:40 83 83 88 Magis Auster quam Zephyrus 13.6 15.7 - - - - - - 30.00 -
21:00 83 83 88 Auster 15.6 17.9 - - - - - -
-
-
21:10 83 83 89 Magis Auster quam Zephyrus 15.6 17.9 - - - - - - 30.01 -
21:20 83 83 89 Magis Auster quam Zephyrus 15.6 17.9 - - - - - - 30.01 -
21:30 83 83 90 Magis Auster quam Zephyrus 15.6 17.9 - - - - - - 30.01 -
21:40 83 83 90 Auster 15.6 17.9 - - - - - - 30.02 -

Detailed Wave Spectra

Time Water Depth Wave Height Spectral Peak Period Average Wave Period Sampling Interval Wave Record
22:00 79 ft 4.63 ft 5.6 sec 4.4 sec 0.6 sec 2400 sec
23:00 79 ft 4.69 ft 5.3 sec 4.4 sec 0.6 sec 2400 sec
00:00 79 ft 4.56 ft 5.3 sec 4.5 sec 0.6 sec 2400 sec
01:00 79 ft 4.86 ft 5.3 sec 4.6 sec 0.6 sec 2400 sec
02:00 79 ft 4.07 ft 5.9 sec 4.3 sec 0.6 sec 2400 sec
03:00 79 ft 4.20 ft 5.9 sec 4.6 sec 0.6 sec 2400 sec
04:00 79 ft 4.00 ft 5.9 sec 4.4 sec 0.6 sec 2400 sec
08:00 79 ft 3.84 ft 5.3 sec 4.3 sec 0.6 sec 2400 sec
09:00 79 ft 3.77 ft 5.6 sec 4.5 sec 0.6 sec 2400 sec
10:00 79 ft 3.28 ft 5.6 sec 4.5 sec 0.6 sec 2400 sec
12:00 79 ft 3.38 ft 5.6 sec 4.4 sec 0.6 sec 2400 sec
14:00 79 ft 3.41 ft 5.6 sec 4.3 sec 0.6 sec 2400 sec
18:00 79 ft 3.35 ft 5.0 sec 4.0 sec 0.6 sec 2400 sec
19:00 79 ft 3.38 ft 5.6 sec 4.0 sec 0.6 sec 2400 sec
20:00 79 ft 3.61 ft 5.3 sec 4.1 sec 0.6 sec 2400 sec
22:00 79 ft 3.22 ft 5.0 sec 4.1 sec 0.6 sec 2400 sec